This demonstration page uses our WeatherBlox Daily Observations layout. Learn more.

Hourly Observations for January 15, 2017

Temp ( °F °C ) Dew Point ( °F °C ) Humidity (%) Winds ( mph kmh ) Pressure ( in mb ) Visibility ( mi km ) Precip ( " mm )
12:54 am 00:54 Mostly Cloudy 31 -0.6 18 -7.8 59 59 Calm 30.46 1032 10 16.0934 0 0
1:54 am 01:54 Mostly Cloudy 29 -1.7 19 -7.2 66 66 SSE 5 7 30.44 1031 10 16.0934 0 0
2:54 am 02:54 Cloudy 31 -0.6 20 -6.7 64 64 ESE 5 7 30.42 1030 10 16.0934 0 0
3:54 am 03:54 Cloudy 30 -1.1 21 -6.1 69 69 Calm 30.41 1030 10 16.0934 0 0
4:54 am 04:54 Cloudy 30 -1.1 21 -6.1 69 69 Calm 30.4 1030 10 16.0934 0 0
5:54 am 05:54 Cloudy 31 -0.6 22 -5.6 69 69 Calm 30.4 1029 10 16.0934 0 0
6:54 am 06:54 Cloudy with Light Wintry Mix 31 -0.6 21 -6.1 67 67 E 3 6 30.39 1029 10 16.0934 0 0.0254
7:18 am 07:18 Cloudy with Light Rain 30 -1 25 -4 80 80 Calm 30.42 1030 10 16.0934 0 0
7:54 am 07:54 Cloudy 31 -0.6 24 -4.4 76 76 ESE 3 6 30.38 1029 10 16.0934 0.01 0.254
8:54 am 08:54 Cloudy with Light Rain 31 -0.6 23 -5 72 72 S 5 7 30.39 1029 10 16.0934 0 0.0254
9:54 am 09:54 Cloudy with Light Rain 31 -0.6 23 -5 72 72 S 8 13 30.39 1029 9 14.48406 0 0.0254
10:54 am 10:54 Cloudy with Light Rain 31 -0.6 24 -4.4 76 76 SSE 3 6 30.37 1028 10 16.0934 0.01 0.254
11:54 am 11:54 Cloudy with Light Rain 30 -1 27 -3 86 86 S 3 6 30.36 1028 6 9.65604 0 0
12:12 pm 12:12 Cloudy with Light Rain 30 -1 27 -3 86 86 S 5 7 30.36 1028 5 8.0467 0 0
12:54 pm 12:54 Cloudy with Light Rain 30 -1.1 27 -2.8 88 88 Calm 30.29 1026 8 12.87472 0.04 1.016
1:39 pm 13:39 Cloudy with Light Rain 31 -0.6 27 -2.8 85 85 ESE 3 6 30.3 1026 8 12.87472 0 0.0254
1:54 pm 13:54 Cloudy with Light Rain 31 -0.6 27 -2.8 85 85 ESE 3 6 30.26 1025 8 12.87472 0 0.0254
2:08 pm 14:08 Cloudy 30 -1 27 -3 86 86 ESE 5 7 30.3 1026 8 12.87472 0 0
2:17 pm 14:17 Cloudy with Light Freezing Rain 30 -1 28 -2 93 93 ESE 6 9 30.3 1026 4 6.43736 0 0
2:26 pm 14:26 Cloudy with Light Freezing Rain 31 -0.6 28 -2.2 89 89 ESE 5 7 30.3 1026 4 6.43736 0 0.0254
2:35 pm 14:35 Cloudy with Light Freezing Rain 31 -0.6 28 -2.2 89 89 ESE 5 7 30.3 1026 4 6.43736 0.01 0.254
2:43 pm 14:43 Cloudy with Light Freezing Rain 31 -0.6 28 -2.2 89 89 ESE 5 7 30.3 1026 5 8.0467 0.01 0.254
2:54 pm 14:54 Cloudy with Light Freezing Rain 31 -0.6 28 -2.2 89 89 E 6 9 30.25 1024 3 4.82802 0.01 0.254
3:32 pm 15:32 Cloudy with Light Freezing Rain 31 -0.6 29 -1.7 92 92 E 6 9 30.3 1026 3 4.82802 0.03 0.762
3:54 pm 15:54 Cloudy with Light Freezing Rain 31 -0.6 29 -1.7 92 92 E 7 11 30.24 1024 3 4.82802 0.05 1.27
4:54 pm 16:54 Cloudy with Light Freezing Rain 31 -0.6 29 -1.7 92 92 ESE 6 9 30.23 1024 3 4.82802 0.03 0.762
5:15 pm 17:15 Cloudy with Light Freezing Rain 31 -0.6 29 -1.7 92 92 ESE 7 11 30.27 1025 2.5 4.02335 0.01 0.254
5:22 pm 17:22 Cloudy with Light Freezing Rain 30 -1 28 -2 93 93 ESE 6 9 30.27 1025 3 4.82802 0 0
5:54 pm 17:54 Cloudy with Light Freezing Rain 31 -0.6 29 -1.7 92 92 E 6 9 30.22 1023 3 4.82802 0.02 0.508
6:54 pm 18:54 Cloudy with Light Freezing Rain 31 -0.6 29 -1.7 92 92 E 7 11 30.21 1023 7 11.26538 0.02 0.508
7:23 pm 19:23 Cloudy 31 -0.6 29 -1.7 92 92 E 5 7 30.27 1025 10 16.0934 0 0.0254
7:54 pm 19:54 Cloudy 31 -0.6 30 -1.1 96 96 ESE 5 7 30.2 1023 9 14.48406 0 0.0254
8:12 pm 20:12 Cloudy with Light Wintry Mix 31 -0.6 30 -1.1 96 96 ESE 6 9 30.21 1023 2.5 4.02335 0 0.0254
8:20 pm 20:20 Cloudy with Light Freezing Rain 31 -0.6 30 -1.1 96 96 ESE 5 7 30.21 1023 2.5 4.02335 0 0.0254
8:54 pm 20:54 Cloudy with Light Freezing Rain 31 -0.6 30 -1.1 96 96 ESE 5 7 30.19 1022 2.5 4.02335 0 0.0254
9:01 pm 21:01 Cloudy with Light Freezing Rain 31 -0.6 30 -1.1 96 96 ESE 5 7 30.21 1023 4 6.43736 0 0.0254
9:54 pm 21:54 Cloudy with Light Freezing Rain 32 0 30 -1.1 92 92 ESE 3 6 30.17 1022 8 12.87472 0 0.0254
10:01 pm 22:01 Cloudy 32 0 30 -1.1 92 92 E 5 7 30.21 1023 8 12.87472 0 0.0254
10:41 pm 22:41 Cloudy with Light Freezing Rain 32 0 30 -1.1 92 92 ENE 6 9 30.18 1022 6 9.65604 0 0.0254
10:54 pm 22:54 Cloudy with Light Freezing Rain 32 0 30 -1.1 92 92 ESE 6 9 30.18 1022 6 9.65604 0 0.0254
11:14 pm 23:14 Cloudy with Light Wintry Mix 32 0 30 -1 93 93 E 5 7 30.18 1022 6 9.65604 0 0
11:54 pm 23:54 Cloudy 32 0 30 -1.1 92 92 SE 6 9 30.17 1022 9 14.48406 0.01 0.254

Powered by AerisWeather